User: anonymous   Login
Location: Brno
(49.2000°N, 16.6330°E)
Time: 01:45:53
(UTC+02:00)
Language:

Iridium 2 - Orbit

View from above orbital plane
View from above orbital plane
View from above satellite
View from above satellite

Ground track
Ground track

The orbit data is extracted from the following two-line orbital elements,

1 25527U 98066A   17228.42982869  .00001201  00000-0  59476-4 0  9997
2 25527  85.5325 356.6841 0007572 217.5615 142.5096 15.16652041 27009
Epoch (UTC): 16 August 2017 10:18:57
Eccentricity: 0.0007572
inclination: 85.5325°
perigee height: 511 km
apogee height: 521 km
right ascension of ascending node: 356.6841°
argument of perigee: 217.5615°
revolutions per day: 15.16652041
mean anomaly at epoch: 142.5096°
orbit number at epoch: 2700

The dashed part of the orbit path shows where the satellite is in the earth's shadow,  

DLR